AO-07 1 07530U 74089B 23243.19956317 -.00000032 00000-0 91788-4 0 9991 2 07530 101.9541 230.3981 0011842 281.1852 144.2337 12.53666560232817 UO-11 1 14781U 84021B 23243.18605900 .00001622 00000-0 19534-3 0 9995 2 14781 97.6647 217.2503 0007060 325.8513 34.2248 14.85181096126276 AO-16 1 20439U 90005D 23243.79516295 .00000194 00000-0 87509-4 0 9997 2 20439 98.8890 235.9839 0010510 348.5205 134.8152 14.33151097755987 LO-19 1 20442U 90005G 23243.42553565 .00000205 00000-0 91395-4 0 9993 2 20442 98.8512 221.5746 0011003 323.0906 36.9519 14.33305164756182 AO-27 1 22825U 93061C 23242.84877827 .00000127 00000-0 66425-4 0 9999 2 22825 98.8354 286.9213 0007987 203.1626 156.9197 14.30338037560966 IO-26 1 22826U 93061D 23242.83328955 .00000150 00000-0 74700-4 0 9993 2 22826 98.8300 286.7675 0008794 188.8919 171.2108 14.30702749561237 FO-29 1 24278U 96046B 23243.16563303 .00000002 00000-0 39770-4 0 9991 2 24278 98.5361 211.5300 0349448 222.2976 135.0729 13.53152894335325 NOAA-15 1 25338U 98030A 23243.70680529 .00000225 00000-0 11161-3 0 9994 2 25338 98.6026 271.4598 0011567 93.6229 266.6274 14.26380755316027 GO-32 1 25397U 98043D 23242.63594457 .00000098 00000-0 62818-4 0 9992 2 25397 98.8752 200.7574 0000330 337.1577 22.9587 14.23902807305929 ISS 1 25544U 98067A 23243.70977395 .00049295 00000-0 86212-3 0 9992 2 25544 51.6420 314.4106 0004647 21.1801 122.0393 15.50130460413501 NO-44 1 26931U 01043C 23243.05772931 .00000215 00000-0 11314-3 0 9998 2 26931 67.0532 3.4958 0007593 261.1027 98.9215 14.30971566144452 SO-50 1 27607U 02058C 23242.89399249 .00001841 00000-0 26922-3 0 9991 2 27607 64.5550 35.8552 0061369 209.0241 150.7447 14.77537925113261 CO-55 1 27844U 03031E 23243.28377022 .00000371 00000-0 18443-3 0 9991 2 27844 98.6799 249.4478 0008515 268.0948 91.9255 14.22858465 46443 CO-57 1 27848U 03031J 23243.46166597 .00000316 00000-0 16178-3 0 9990 2 27848 98.6836 250.0094 0008480 285.0710 74.9529 14.22358727 46258 RS-22 1 27939U 03042A 23243.76763486 .00001398 00000-0 24911-3 0 9991 2 27939 98.2536 31.3482 0011279 256.6705 210.5623 14.68618336 65632 NOAA-18 1 28654U 05018A 23243.62273768 .00000245 00000-0 15525-3 0 9996 2 28654 98.9054 317.6352 0014705 162.8063 197.3610 14.12996415942220 CO-58 1 28895U 05043F 23243.57004904 .00001856 00000-0 34744-3 0 9992 2 28895 98.1633 15.1062 0016032 190.7049 169.3816 14.65944128952083 CO-65 1 32785U 08021C 23243.75017241 .00003031 00000-0 29745-3 0 9994 2 32785 97.7127 208.1443 0011053 204.4190 155.6507 14.92894169832164 AAUSAT2 1 32788U 08021F 23242.43323238 .00010235 00000-0 71558-3 0 9990 2 32788 97.5644 220.2977 0009986 100.4192 259.8161 15.05451147834272 DO-64 1 32789U 08021G 23243.05731999 .00092069 00000-0 17345-2 0 9995 2 32789 97.2962 264.5877 0007096 169.3364 190.8039 15.48158961839029 CO-66 1 32791U 08021J 23243.39388096 .00005927 00000-0 51068-3 0 9999 2 32791 97.6615 213.1232 0012970 150.5592 209.6363 14.97632396832998 RS-30 1 32953U 08025A 23243.77667795 .00000039 00000-0 20816-3 0 9997 2 32953 82.4983 270.0789 0019824 23.5697 336.6286 12.43128457693040 PRISM 1 33493U 09002B 23242.80466759 .00010902 00000-0 70830-3 0 9994 2 33493 98.2439 262.6396 0016785 151.2745 208.9409 15.08109132794984 NOAA-19 1 33591U 09005A 23243.74757575 .00000207 00000-0 13592-3 0 9998 2 33591 99.0937 290.8602 0014316 34.3423 325.8671 14.12812440750619 SRMSAT 1 37841U 11058D 23242.35563472 .00000460 00000-0 10745-3 0 9996 2 37841 19.9716 121.5817 0011931 126.9530 28.1229 14.10933839613290 HRBE 1 37855U 11061F 23243.73278963 .00023553 00000-0 66126-3 0 9998 2 37855 101.7093 248.3067 0110485 167.4312 192.9709 15.30628955648575 RS-40 1 38735U 12041C 23243.11422194 .00000023 00000-0 91854-4 0 9998 2 38735 82.4815 351.3705 0018350 132.2758 227.9881 12.42595531503120 ZACUBE-1 1 39417U 13066B 23243.14765989 .00004040 00000-0 46085-3 0 9997 2 39417 97.6914 202.2366 0055609 42.4834 318.0665 14.85534927528320 Delfi-N3xt 1 39428U 13066N 23243.57757427 .00005255 00000-0 74558-3 0 9999 2 39428 97.8303 165.7661 0107716 307.7649 51.3839 14.73454155523411 GOMX-1 1 39430U 13066Q 23243.74689666 .00002115 00000-0 36913-3 0 9995 2 39430 97.7686 130.4630 0146350 94.1709 267.6235 14.62130835520573 LO-74 1 39440U 13066AA 23243.43322905 .00002547 00000-0 32815-3 0 9998 2 39440 97.7763 189.7712 0075700 141.2904 219.3767 14.79917802526484 AO-73 1 39444U 13066AE 23243.15610959 .00005201 00000-0 56635-3 0 9996 2 39444 97.6775 204.8624 0053293 27.4780 332.9236 14.87385913527374 SPROUT 1 39770U 14029E 23243.61390422 .00022107 00000-0 15344-2 0 9994 2 39770 97.9948 13.3065 0005842 62.7043 297.4777 15.05573670503496 DTUSAT-2 1 40030U 14033W 23243.12255195 .00005139 00000-0 48972-3 0 9993 2 40030 97.9702 184.6663 0012218 51.0155 309.2150 14.93769734499698 EO-80 1 40032U 14033Y 23243.09793964 .00004416 00000-0 42156-3 0 9997 2 40032 97.9695 184.6582 0011970 50.8078 309.4203 14.93777963499678 HODOYOSHI-1 1 40299U 14070B 23243.74780707 .00010825 00000-0 31568-3 0 9992 2 40299 97.1876 304.5113 0010078 17.8668 342.2929 15.35477420490397 GRIFEX 1 40379U 15003D 23243.61606091 .00057350 00000-0 10122-2 0 9993 2 40379 99.0795 198.9534 0070307 12.8931 347.4090 15.47410473475025 XW-2C 1 40906U 15049H 23243.75810779 .00012315 00000-0 44742-3 0 9992 2 40906 97.4940 251.2500 0008936 249.3936 110.6345 15.28395802439932 XW-2D 1 40907U 15049J 23243.73591989 .00014624 00000-0 49344-3 0 9998 2 40907 97.4917 251.9880 0008049 238.1476 121.8982 15.30774822440035 LILACSAT-2 1 40908U 15049K 23243.78859739 .00005517 00000-0 25399-3 0 9999 2 40908 97.5270 246.6873 0011620 288.9390 71.0586 15.20671827439280 XW-2E 1 40909U 15049L 23243.71167923 .00035569 00000-0 79068-3 0 9992 2 40909 97.4497 259.1087 0007666 185.0283 175.0889 15.43559942440775 XW-2F 1 40910U 15049M 23243.74285356 .00032732 00000-0 74592-3 0 9994 2 40910 97.4592 258.3948 0008160 189.9421 170.1666 15.42831472440518 XW-2B 1 40911U 15049N 23243.74384371 .00014462 00000-0 49195-3 0 9993 2 40911 97.4895 252.3837 0007978 240.2727 119.7720 15.30515862439913 DCBB 1 40912U 15049P 23243.74389238 .00050379 00000-0 86530-3 0 9992 2 40912 97.4114 263.3765 0009880 148.8304 211.3535 15.50943681441291 IO-86 1 40931U 15052B 23243.43460735 .00001262 00000-0 84749-4 0 9993 2 40931 5.9996 269.3507 0013573 280.5635 79.2964 14.77333518428493 ChubuSat-2 1 41338U 16012B 23242.85673562 .00003901 00000-0 26480-3 0 9990 2 41338 31.0023 100.2118 0011881 204.2733 155.7344 15.04595424413638 ChubuSat-3 1 41339U 16012C 23243.72249615 .00003559 00000-0 24233-3 0 9999 2 41339 31.0086 91.9448 0011881 219.8227 140.1538 15.04402957413754 Horyu-4 1 41340U 16012D 23242.89766450 .00007099 00000-0 43177-3 0 9990 2 41340 31.0037 62.3864 0011084 274.7102 85.2270 15.09002458414012 e-st@r-II 1 41459U 16025D 23243.76789546 .00032708 00000-0 83411-3 0 9993 2 41459 98.1773 92.9884 0096983 194.3027 165.5466 15.34681414404470 AAUSAT4 1 41460U 16025E 23242.92937213 .01046588 53010-3 22794-2 0 9998 2 41460 98.1341 109.2977 0021342 143.4504 216.8232 15.97931687405505 LO-87 1 41557U 16033B 23243.75463994 .00136369 00000-0 95749-3 0 9991 2 41557 97.3885 355.3716 0006665 222.6013 137.4735 15.73737705405456 NuSat2 1 41558U 16033C 23243.72804759 .00217503 00000-0 10326-2 0 9994 2 41558 97.4168 4.4077 0006856 226.9381 133.1314 15.82326316405831 Lapan A3 1 41603U 16040E 23243.76458336 .00002506 00000-0 10959-3 0 9991 2 41603 97.1635 265.8438 0014043 55.1906 305.0650 15.22872721398995 Pratham 1 41783U 16059A 23242.86120328 .00000700 00000-0 14104-3 0 9997 2 41783 97.8655 270.6439 0031972 222.1513 137.7232 14.64096475369902 TY-1 1 41844U 16066D 23243.74374331 .00099867 00000-0 99840-3 0 9998 2 41844 97.3604 265.7273 0009734 131.6735 228.5359 15.65218688379455 CAS-2T 1 41847U 16066G 23242.80434042 .00000811 00000-0 13016-3 0 9995 2 41847 98.4989 310.9901 0358251 333.6949 24.6424 14.39967368357549 CAS-4B 1 42759U 17034B 23243.72281646 .00008768 00000-0 42427-3 0 9993 2 42759 43.0149 55.3568 0012025 235.6762 124.2949 15.18762476343113 CAS-4A 1 42761U 17034D 23243.73872472 .00009537 00000-0 46015-3 0 9992 2 42761 43.0142 53.7893 0012733 236.1215 123.8422 15.18775492343121 NIUSat 1 42766U 17036B 23242.65378718 .00027421 00000-0 60724-3 0 9998 2 42766 97.1513 272.4782 0009740 176.4692 183.6627 15.43703198344083 Aalto 1 1 42775U 17036L 23242.87846587 .00019703 00000-0 52026-3 0 9996 2 42775 97.1473 270.8925 0009468 180.9813 179.1416 15.38440393343995 URSA MAIOR 1 42776U 17036M 23243.02986948 .00023778 00000-0 57825-3 0 9990 2 42776 97.1480 272.6285 0009330 175.3647 184.7688 15.40923000344105 Max Valier Sat 1 42778U 17036P 23242.79065309 .00024756 00000-0 56883-3 0 9994 2 42778 97.1475 276.0372 0008198 172.4711 187.6662 15.42634907344210 Pegasus 1 42784U 17036V 23242.68137970 .00049461 00000-0 74784-3 0 9993 2 42784 97.1401 279.5235 0007513 161.4175 198.7355 15.54524758344525 SUCHAI 1 1 42788U 17036Z 23243.73274207 .00205378 00000-0 12929-2 0 9992 2 42788 97.1315 285.9375 0007029 165.1003 195.0472 15.76075082345113 SKCUBE 1 42789U 17036AA 23243.75900845 .00093524 00000-0 10197-2 0 9992 2 42789 97.1336 283.4420 0007588 156.0678 204.0935 15.63053947344877 VENTA 1 1 42791U 17036AC 23242.68533620 .00053612 00000-0 79940-3 0 9995 2 42791 97.1397 280.7595 0006651 158.5569 201.5966 15.54895613344584 Robusta 1B 1 42792U 17036AD 23243.15554863 .00146757 00000-0 11684-2 0 9994 2 42792 97.1312 284.6374 0006782 158.0830 202.0724 15.70720932344915 D-SAT 1 42794U 17036AF 23243.38358719 .00005984 00000-0 46500-3 0 9995 2 42794 97.4696 231.9928 0116706 49.6374 311.4967 14.96353579337205 TechnoSat 1 42829U 17042E 23243.61349463 .00002771 00000-0 26433-3 0 9997 2 42829 97.3865 76.5578 0012601 338.7291 21.3404 14.94027530333756 AO-91 1 43017U 17073E 23243.09714617 .00005899 00000-0 40705-3 0 9992 2 43017 97.6187 124.4961 0229869 181.2595 178.8073 14.87140821312319 PICSAT 1 43132U 18004X 23242.22636713 .00239339 00000-0 14285-2 0 9990 2 43132 97.3177 328.4879 0005607 227.0003 133.0794 15.77209922314135 AO-92 1 43137U 18004AC 23243.20080338 .00046341 00000-0 76149-3 0 9997 2 43137 97.3225 323.5052 0004820 212.5131 147.5826 15.52248762313919 TianYi 2 1 43155U 18008A 23243.73973287 .00019352 00000-0 69534-3 0 9995 2 43155 97.2912 294.5711 0012739 49.4737 310.7611 15.28611605310182 Zhou Enlai 1 43156U 18008B 23243.77841078 .00020438 00000-0 71522-3 0 9999 2 43156 97.2960 294.8562 0010347 51.7732 308.4438 15.29490289310126 TianYi 6 1 43158U 18008D 23242.38450068 .00015625 00000-0 61885-3 0 9995 2 43158 97.2984 290.0430 0011123 60.6231 299.6116 15.25447486309727 S-Net D 1 43186U 18014G 23242.59332222 .00003401 00000-0 27057-3 0 9999 2 43186 97.6166 144.9642 0012677 289.1854 70.7997 15.01012576304711 S-Net B 1 43187U 18014H 23243.59466732 .00003568 00000-0 28363-3 0 9990 2 43187 97.6165 145.8713 0013026 283.6671 76.3102 15.01016087304862 S-Net A 1 43188U 18014J 23243.52799526 .00003494 00000-0 27781-3 0 9995 2 43188 97.6173 145.8990 0013027 283.7773 76.2001 15.01017992304856 S-Net C 1 43189U 18014K 23243.19733071 .00003350 00000-0 26656-3 0 9993 2 43189 97.6177 145.4611 0013792 280.8297 79.1374 15.01010242303355 CubeBel-1 1 43666U 18083E 23243.73986192 .00036631 00000-0 81674-3 0 9992 2 43666 97.3743 276.0435 0008666 190.4535 169.6534 15.43454856268836 Changshagaoxin 1 43669U 18083H 23243.77670632 .00028835 00000-0 75072-3 0 9990 2 43669 97.3745 270.2452 0006683 187.7451 172.3692 15.38827027268552 Ten-Koh 1 43677U 18084G 23243.73530026 .00002953 00000-0 28622-3 0 9990 2 43677 98.0238 25.0734 0013759 257.6772 102.2907 14.93442512263334 PO-101 1 43678U 18084H 23243.69238120 .00001986 00000-0 19343-3 0 9991 2 43678 98.0337 29.2408 0008167 272.5726 87.4558 14.93693644263533 QO-100 1 43700U 18090A 23243.04714913 .00000128 00000-0 00000+0 0 9995 2 43700 0.0056 129.0644 0002548 63.0371 189.6283 1.00272320 17688 Reaktor Hello World 1 43743U 18096AA 23242.96791940 .00131146 00000-0 98933-3 0 9994 2 43743 97.3115 332.7415 0008479 249.1303 110.9053 15.72040300265862 MinXSS-2 1 43758U 18099A 23243.39958665 .00006601 00000-0 49861-3 0 9993 2 43758 97.5961 306.0090 0018889 228.0407 131.9209 15.02579999259031 AO-95 1 43770U 18099N 23243.59333239 .00005324 00000-0 42427-3 0 9995 2 43770 97.5760 303.1266 0013285 254.5721 105.4035 15.00688354258916 RANGE-B 1 43772U 18099Q 23243.10624394 .00006740 00000-0 50973-3 0 9997 2 43772 97.5701 305.6273 0006864 168.4324 191.7060 15.02643027258911 RANGE-A 1 43773U 18099R 23243.44412772 .00003994 00000-0 33354-3 0 9992 2 43773 97.5577 300.8014 0011306 213.1284 146.9233 14.99042454258830 MOVE-II 1 43780U 18099Y 23242.66103184 .00010633 00000-0 74749-3 0 9998 2 43780 97.5657 305.1646 0007602 254.9966 105.0420 15.05252519258938 SNUSat 2 1 43782U 18099AA 23243.43227784 .00004143 00000-0 33336-3 0 9995 2 43782 97.5619 303.4541 0013513 191.0372 169.0557 15.00441126258911 SnugLite 1 43784U 18099AC 23242.81906991 .00004468 00000-0 35374-3 0 9996 2 43784 97.5509 302.5237 0008025 201.6192 158.4694 15.01067166258860 ITASat 1 1 43786U 18099AE 23243.14818844 .00003083 00000-0 25084-3 0 9993 2 43786 97.5694 303.7139 0015732 236.0140 123.9590 15.00179464258887 EAGLET 1 1 43790U 18099AJ 23243.14747879 .00002273 00000-0 18911-3 0 9998 2 43790 97.5701 304.1164 0011240 236.4354 123.5797 14.99625684258618 ESEO 1 43792U 18099AL 23243.11703399 .00002365 00000-0 20511-3 0 9997 2 43792 97.5636 302.3210 0011320 225.9784 134.0506 14.97958851258605 CSIM 1 43793U 18099AM 23243.13434215 .00009269 00000-0 64457-3 0 9995 2 43793 97.5708 307.0492 0014949 227.5367 132.4596 15.05629219258856 Astrocast 0.1 1 43798U 18099AS 23242.95682406 .00007486 00000-0 54586-3 0 9997 2 43798 97.5795 306.1232 0011619 202.4141 157.6579 15.03955698259001 JO-97 1 43803U 18099AX 23243.43029525 .00005063 00000-0 39282-3 0 9990 2 43803 97.5697 304.1284 0012039 198.2615 161.8179 15.01749934258980 Suomi 100 1 43804U 18099AY 23242.84532988 .00005284 00000-0 41318-3 0 9995 2 43804 97.5748 303.3119 0017062 219.0176 140.9819 15.01374727258894 Al Farabi 2 1 43805U 18099AZ 23242.42972432 .00006576 00000-0 48776-3 0 9992 2 43805 97.5567 304.0277 0011974 199.6085 160.4681 15.03351440258900 CHOMPTT 1 43855U 18104G 23243.11022776 .00025810 00000-0 55470-3 0 9999 2 43855 85.0262 115.0340 0013053 45.8892 314.3433 15.44439508262129 ISAT 1 43879U 18111D 23242.99684318 .00006226 00000-0 46087-3 0 9998 2 43879 97.6375 146.4319 0012022 269.2274 90.7574 15.03454877253553 UWE-4 1 43880U 18111E 23243.53669170 .00005450 00000-0 40651-3 0 9999 2 43880 97.6276 147.5686 0016082 277.6933 82.2466 15.03174629253683 Sparrow 1 43881U 18111F 23243.18539572 .00005662 00000-0 41573-3 0 9992 2 43881 97.6421 148.0576 0009441 322.7120 37.3449 15.03824289253654 Lume 1 1 43908U 18111AJ 23243.52077484 .00042893 00000-0 70134-3 0 9991 2 43908 97.1243 125.9219 0007742 287.2822 72.7584 15.52382795261056 FO-99 1 43937U 19003F 23243.05407345 .00097705 00000-0 10139-2 0 9995 2 43937 97.0777 269.8610 0006870 18.8196 341.3316 15.64310993257704 AstroCast 0.2 1 44083U 19018F 23243.13182008 .00109301 00000-0 12647-2 0 9991 2 44083 97.2568 304.0542 0003270 273.2776 86.8108 15.61487970246069 AISTechSat 3 1 44103U 19018AB 23243.75704312 .00031356 00000-0 65122-3 0 9991 2 44103 97.2450 301.8889 0006921 10.6587 349.4807 15.45600301246162 AISat 1 1 44104U 19018AC 23242.83987166 .00021472 00000-0 37027-3 0 9991 2 44104 97.3742 335.7200 0036470 346.6010 13.4269 15.50290869247279 Prox-1 1 44339U 19036A 23242.80738335 .00005671 00000-0 11032-2 0 9990 2 44339 24.0007 289.7923 0009660 14.5761 345.5009 14.60402119222609 Move-IIb 1 44398U 19038N 23243.23027945 .00076490 00000-0 13410-2 0 9992 2 44398 97.6626 230.1423 0011903 47.3372 312.8879 15.50227549230251 SONATE 1 44400U 19038Q 23243.17751346 .00010405 00000-0 44423-3 0 9991 2 44400 97.6897 222.4763 0021786 55.2772 305.0511 15.22872270229642 BeeSat 9 1 44412U 19038AC 23243.39888151 .00027022 00000-0 82229-3 0 9992 2 44412 97.6786 226.7386 0016061 50.0460 310.2190 15.33861886229674 JAISAT-1 1 44419U 19038F 23243.39978649 .00026408 00000-0 79745-3 0 9997 2 44419 97.6774 227.8514 0015224 47.2507 313.0013 15.34123628230058 Taurus 1 1 44530U 19059C 23243.75271129 .00004215 00000-0 10817-2 0 9999 2 44530 98.5596 352.7695 0012857 216.1259 143.9067 14.50751426209596 Duchifat 3 1 44854U 19089C 23243.67968584 .00008487 00000-0 55186-3 0 9994 2 44854 36.9626 359.6775 0007996 218.3643 141.6533 15.07547484204227 OPS-SAT 1 44878U 19092F 23242.96244614 .00032468 00000-0 86039-3 0 9993 2 44878 97.4727 72.8729 0007528 219.8034 140.2659 15.38252519205277 TO-108 1 44881U 19093C 23243.74964435 .00001084 00000-0 14067-3 0 9997 2 44881 97.8578 320.9098 0014538 186.3540 173.7492 14.82710852199998 FloripaSat 1 1 44885U 19093G 23243.69168864 .00003786 00000-0 43442-3 0 9997 2 44885 97.8655 324.0360 0013552 186.9851 173.1178 14.86405169200164 RS-44 1 44909U 19096E 23243.12076138 .00000034 00000-0 90001-4 0 9994 2 44909 82.5204 298.1609 0217573 12.0909 348.5296 12.79722256171795 BY70-2 1 45857U 20042B 23243.72918636 .00018534 00000-0 17600-2 0 9990 2 45857 97.9234 324.0400 0009589 121.6141 238.6015 14.93522769170804 UPMSat 2 1 46276U 20061E 23242.66972129 .00008330 00000-0 33877-3 0 9994 2 46276 97.3411 308.7406 0002768 87.7782 272.3773 15.24777466165633 AmicalSat 1 46287U 20061R 23242.68030647 .00011817 00000-0 52026-3 0 9999 2 46287 97.3946 307.8610 0002716 156.6773 203.4587 15.21991021165038 SALSAT 1 46495U 20068K 23243.62754388 .00004179 00000-0 27186-3 0 9999 2 46495 97.7742 192.4862 0014054 218.0001 142.0236 15.08466736160443 CAPE 3 1 47309U 21002A 23242.39669151 .00040962 00000-0 80785-3 0 9993 2 47309 60.6750 132.5855 0010677 331.3920 28.6591 15.46875783145746 AO-109 1 47311U 21002C 23242.40570469 .00028757 00000-0 64563-3 0 9995 2 47311 60.6797 132.3468 0008293 332.3697 27.6957 15.43237113145720 ExoCube 2 1 47319U 21002L 23243.22519943 .00028278 00000-0 65420-3 0 9995 2 47319 60.6774 131.6960 0009408 331.7364 28.3220 15.42336978145779 UVSQ-SAT 1 47438U 21006AB 23243.39591041 .00015065 00000-0 57350-3 0 9991 2 47438 97.3776 299.5177 0010039 168.0512 192.0967 15.26789902144117 YUSAT 1 1 47439U 21006AC 23243.14991650 .00021202 00000-0 72906-3 0 9999 2 47439 97.3778 300.3614 0009573 165.6865 194.4648 15.30064019144147 SOMP 2b 1 47445U 21006AJ 23242.96447656 .00015366 00000-0 60018-3 0 9992 2 47445 97.3745 298.2214 0009749 174.3862 185.7488 15.25932838144016 IDEASSat 1 47458U 21006AX 23242.38842402 .00013132 00000-0 52576-3 0 9999 2 47458 97.3843 298.4523 0009149 174.9938 185.1393 15.25147029143904 CubeSX-Sirius-HSE 1 47951U 21022V 23243.74549842 .00009580 00000-0 51572-3 0 9995 2 47951 97.4867 139.9077 0020324 75.4663 284.8821 15.14862483134460 CubeSX-HSE 1 47952U 21022W 23243.78142478 .00009636 00000-0 51763-3 0 9998 2 47952 97.4870 139.9972 0020320 74.8818 285.4660 15.14937259134473 KSU-Cubesat 1 47954U 21022Y 23243.12623414 .00010850 00000-0 56589-3 0 9993 2 47954 97.4877 139.8406 0019660 75.5125 284.8287 15.15961879134123 GRBAlpha 1 47959U 21022AD 23243.76391459 .00009325 00000-0 49993-3 0 9995 2 47959 97.4872 140.0757 0020153 75.2757 285.0707 15.15020294133297 Orbicraft-Zorkiy 1 47960U 21022AE 23243.74992174 .00010182 00000-0 53311-3 0 9998 2 47960 97.4904 140.6047 0019620 74.0008 286.3383 15.15844194134003 STECCO 1 47962U 21022AG 23243.75807448 .00020563 00000-0 86966-3 0 9996 2 47962 97.4871 143.7114 0014316 64.0968 296.1742 15.23146905133537 MO-110 1 47964U 21022AJ 23242.25337292 .00020521 00000-0 84395-3 0 9995 2 47964 97.4892 142.9227 0016208 63.9792 296.3112 15.24064929133341 FEES 1 48082U 21022AL 23243.20641094 .00044322 00000-0 13682-2 0 9996 2 48082 97.4874 145.9929 0011733 59.1090 301.1304 15.33356210133335 TUBIN 1 48900U 21059X 23243.72539306 .00009146 00000-0 41768-3 0 9996 2 48900 97.6098 17.9172 0009095 26.3159 333.8536 15.20785312120657 IT-SPINS 1 49017U 21013G 23243.50483223 .00036106 00000-0 68436-3 0 9995 2 49017 51.5891 67.9254 0006959 238.2443 121.7867 15.47960367121352 LEDSAT 1 49069U 21073D 23243.42473379 .00008417 00000-0 44523-3 0 9995 2 49069 97.4770 313.0722 0022686 216.7931 143.1746 15.15481456112296 CUTE 1 49263U 21088D 23243.13698958 .00008818 00000-0 54390-3 0 9995 2 49263 97.5386 307.6897 0017005 10.8733 349.2861 15.10045959105591 TeikyoSat 4 1 49396U 21102B 23242.85906065 .00001520 00000-0 11854-3 0 9999 2 49396 97.5081 292.5309 0013982 175.1323 185.0041 15.02556137 98986 Z-Sat 1 49399U 21102E 23243.74239523 .00003203 00000-0 22660-3 0 9996 2 49399 97.4789 294.5200 0022258 167.4356 192.7431 15.05359408 99255 KOSEN 1 1 49402U 21102H 23243.45870767 .00003654 00000-0 24502-3 0 9997 2 49402 97.4710 294.8938 0021443 156.4508 203.7707 15.07284203 99292 HO-113 1 50466U 21131B 23243.75317673 .00000589 00000-0 20500-3 0 9994 2 50466 98.5492 325.0593 0003062 273.5063 86.5774 14.39025761 88229 Tevel-3 1 50988U 22002E 23243.75341421 .00020199 00000-0 73455-3 0 9995 2 50988 97.4273 310.3447 0005833 333.6939 26.4004 15.28271045 90292 Tevel-8 1 50989U 22002F 23243.71013467 .00019997 00000-0 72895-3 0 9999 2 50989 97.4290 310.3689 0005803 333.3881 26.7060 15.28195520 90287 Tevel-5 1 50998U 22002Q 23243.71943109 .00021001 00000-0 74117-3 0 9992 2 50998 97.4267 310.7910 0006724 325.5647 34.5156 15.29240973 90320 Tevel-6 1 50999U 22002R 23243.71799823 .00020987 00000-0 74077-3 0 9992 2 50999 97.4266 310.7825 0006723 325.2132 34.8668 15.29237709 90324 Tevel-1 1 51013U 22002AF 23243.70025133 .00019971 00000-0 72761-3 0 9994 2 51013 97.4264 310.2214 0005744 333.9014 26.1935 15.28213182 90288 Grizu-263a 1 51025U 22002AT 23243.17338131 .00225183 00000-0 21336-2 0 9998 2 51025 97.4359 318.6280 0007088 263.4846 96.5607 15.66202124 90704 NO-116 1 51031U 22002AZ 23242.46869894 .00042997 00000-0 11159-2 0 9993 2 51031 97.4398 313.1411 0006705 316.6018 43.4699 15.38838842 90306 IRIS-A 1 51044U 22002BN 23243.18096330 .00009156 00000-0 41685-3 0 9992 2 51044 97.4290 307.5424 0007064 348.4103 11.6968 15.20893620 90053 Tevel-7 1 51062U 22002CG 23243.71002238 .00020078 00000-0 73130-3 0 9991 2 51062 97.4285 310.3399 0005773 332.8369 27.2567 15.28221715 90287 Tevel-4 1 51063U 22002CH 23243.71911209 .00020341 00000-0 74239-3 0 9993 2 51063 97.4283 310.3241 0005790 332.6424 27.4510 15.28152329 90285 Tevel-2 1 51069U 22002CP 23243.75495582 .00020150 00000-0 73263-3 0 9998 2 51069 97.4270 310.3154 0005783 333.6225 26.4719 15.28278328 90291 DELFI-PQ 1 51074U 22002CU 23242.68611517 .00055705 00000-0 12402-2 0 9994 2 51074 97.4529 316.3272 0006392 343.1970 16.9065 15.43420406 90461 SO-115 1 51080U 22002DA 23241.14973358 .00025538 00000-0 81450-3 0 9996 2 51080 97.4561 312.2244 0008775 7.9017 352.2362 15.32464486 90057 SO-114 1 51081U 22002DB 23242.43377270 .00024974 00000-0 78907-3 0 9997 2 51081 97.4547 313.5034 0008799 2.3322 357.7960 15.32768990 90250 OreSat0 1 52017U 22026K 23242.52248413 .00016115 00000-0 59537-3 0 9995 2 52017 97.5097 245.2840 0021530 174.8871 185.2591 15.27595548 80882 Planetum 1 1 52738U 22057G 23243.06492446 .00015220 00000-0 65894-3 0 9995 2 52738 97.5449 359.1357 0007538 90.4301 269.7799 15.22486246 70048 Foresail-1 1 52766U 22057AL 23243.69327338 .00009904 00000-0 44915-3 0 9995 2 52766 97.5572 0.6447 0012639 70.3545 289.9053 15.20964515 70156 SNUGLITE 2 1 52899U 22065F 23243.15707797 .00001206 00000-0 26359-3 0 9992 2 52899 98.0795 25.9646 0007584 351.5862 8.5210 14.59510225 61792 CTIM 1 52950U 22074G 23242.57423967 .00066822 00000-0 10750-2 0 9991 2 52950 44.9970 300.9983 0013962 350.7763 9.2871 15.52062139 65125 IO-117 1 53106U 22080B 23241.35995544 -.00000003 00000-0 00000-0 0 9997 2 53106 70.1509 294.2974 0008593 172.8952 187.1830 6.42557086 26453 AstroBioCubeSat 1 53107U 22080C 23025.30817895 -.00000003 00000-0 00000-0 0 9995 2 53107 70.1710 9.4734 0013545 210.3158 149.6718 6.42110537 12478 SelfieSat 1 53951U 22057BC 23243.32860970 .00019106 00000-0 77067-3 0 9995 2 53951 97.5494 0.3109 0008886 82.1162 278.1084 15.24820313 70125 FO-118 1 54684U 22167C 23243.77275265 .00011834 00000-0 61992-3 0 9997 2 54684 97.5722 20.9674 0013889 76.4996 283.7783 15.15874061 40122 SSS-2B 1 56184U 23054G 23243.76407136 .00011746 00000-0 47707-3 0 9993 2 56184 97.3998 137.7489 0012398 123.7511 236.4910 15.24662120 21684 CIRBE 1 56188U 23054L 23243.51761797 .00016181 00000-0 63693-3 0 9996 2 56188 97.3957 137.5316 0011026 117.9597 242.2758 15.25650877 21655 INSPIRE-Sat 7 1 56211U 23054AK 23243.50086215 .00017613 00000-0 65353-3 0 9993 2 56211 97.3974 137.9047 0016180 104.4840 255.8195 15.27527159 21679 RoseyCubesat 1 1 56212U 23054AL 23242.69209675 .00017457 00000-0 64019-3 0 9994 2 56212 97.3984 137.1661 0016479 106.3700 253.9353 15.27911441 21555 ARKSAT 1 1 56311U 98067VC 23243.33065412 .00105510 00000-0 86904-3 0 9996 2 56311 51.6348 307.6721 0010036 4.1934 355.9145 15.69490995 20115 AuroraSat 1 56312U 98067VD 23243.33419545 .00165463 00000-0 10852-2 0 9998 2 56312 51.6316 306.1739 0011390 2.7896 357.3165 15.74634806 20169 Ex-Alta 2 1 56313U 98067VE 23243.19930913 .00108255 00000-0 88425-3 0 9998 2 56313 51.6321 308.2781 0010045 2.3681 357.7362 15.69680833 20113 LightCube 1 56314U 98067VF 23242.47623787 .00146011 00000-0 10253-2 0 9992 2 56314 51.6320 310.9443 0011473 353.0679 7.0159 15.73112297 20047 NEUDOSE 1 56315U 98067VG 23243.26500328 .00069397 00000-0 72436-3 0 9999 2 56315 51.6345 310.2312 0009388 356.1663 3.9258 15.63804094 20072 YukonSat 1 56316U 98067VH 23242.65557374 .00085949 00000-0 79163-3 0 9990 2 56316 51.6344 312.1569 0009921 352.9157 7.1697 15.66846277 20011 URESAT-1 1 56992U 23084BU 23243.58790057 .00011574 00000-0 64866-3 0 9994 2 56992 97.5129 358.9112 0016896 320.4410 39.5588 15.13434647 12042 MRC-100 1 56993U 23084BV 23243.05843103 .00012467 00000-0 69717-3 0 9990 2 56993 97.5133 358.3974 0017092 322.4602 37.5435 15.13492007 11976 UmKA 1 (RS40S) 1 57172U 23091G 23243.76417922 .00004535 00000-0 33301-3 0 9999 2 57172 97.6576 293.8349 0018477 32.4487 327.7871 15.03825195 9796 CubeBel-2 (EU11S) 1 57175U 23091K 23243.72290999 .00004633 00000-0 34453-3 0 9999 2 57175 97.6586 293.7338 0018034 47.1500 313.1237 15.03339924 9789 /EX